Location: Fours
(44.3167°N, 6.7000°E)
Time: 04:59:22
(UTC+00:00)

CZ-2C R/B - Pass Details

Date: 30 November 2020
Orbit: 705 x 907 km, 98.1° (Epoch: 24 January)

Event Time Altitude Azimuth Distance (km) Brightness Sun altitude
Rises 17:38:22 0° 151° (SSE) 3,240 6.1 -17.8°
Reaches altitude 10° 17:40:45 10° 147° (SSE) 2,288 5.3 -18.3°
Maximum altitude 17:45:35 52° 72° (ENE) 920 3.0 -19.1°
Drops below altitude 10° 17:50:16 10° 357° (N) 2,212 5.3 -19.9°
Sets 17:52:33 0° 352° (N) 3,123 6.1 -20.3°
